Tracking 29510 objects as of 15-Sep-2024
HD Live streaming from Space Station
objects crossing your sky now

STARLINK-2568

Track STARLINK-2568 now!
10-day predictions
STARLINK-2568 is classified as:


NORAD ID: 48406
Int'l Code: 2021-038BF
Perigee: 553.4 km
Apogee: 555.5 km
Inclination: 53.1 °
Period: 95.6 minutes
Semi major axis: 6925 km
RCS: Unknown
Launch date: May 4, 2021
Source: United States (US)
Launch site: AIR FORCE EASTERN TEST RANGE (AFETR)
Your satellite tracking list
Your tracking list is empty




NASA's NSSDC Master Catalog

Two Line Element Set (TLE):
1 48406U 21038BF  24258.93206473  .00009935  00000-0  68543-3 0  9996
2 48406  53.0522 249.1748 0001501  97.3755 262.7405 15.06372102185804
Source of the keplerian elements: AFSPC